NSS-11 1 26554U 00059A 26237.22368172 .00000022 00000+0 00000+0 0 9999 2 26554 2.2981 80.5192 0003159 81.3945 68.1092 1.00272473 41983 AMC-6 1 26580U 00067A 26237.20870067 .00000085 00000+0 00000+0 0 9995 2 26580 0.3226 83.9945 0004166 69.1275 120.4339 1.00272683 94588 AMC-15 1 28446U 04041A 26237.26711253 -.00000092 00000+0 00000+0 0 9990 2 28446 0.0625 286.0786 0002463 203.5254 195.0478 1.00272160 79999 NSS-10 1 28526U 05003A 26236.89630038 -.00000254 00000+0 00000+0 0 9997 2 28526 6.6164 69.5952 0003088 78.6156 110.1877 1.00271630 53841 ASTRA 1KR 1 29055U 06012A 26237.19256825 .00000116 00000+0 00000+0 0 9994 2 29055 0.6454 82.9508 0003541 66.7803 272.0449 1.00271864 46385 ASTRA 1L 1 31306U 07016A 26237.18398821 -.00000187 00000+0 00000+0 0 9992 2 31306 1.4931 80.9298 0005165 69.5642 224.6978 1.00272345 45672 ASTRA 4A 1 32299U 07057A 26237.18979491 .00000030 00000+0 00000+0 0 9993 2 32299 0.0523 289.1382 0002462 214.5696 262.8873 1.00272441 52337 ASTRA 1M 1 33436U 08057A 26237.19265492 .00000118 00000+0 00000+0 0 9995 2 33436 0.4675 82.8582 0003978 68.8915 270.4721 1.00269820 46427 NSS-9 1 33749U 09008A 26237.22506839 .00000069 00000+0 00000+0 0 9991 2 33749 1.4333 81.8946 0002315 55.7884 99.9058 1.00271768 64211 SES-7 (PROTOSTAR 2) 1 34941U 09027A 26236.92516051 -.00000348 00000+0 00000+0 0 9991 2 34941 0.0355 77.8767 0001477 111.2228 225.4108 1.00271424 63310 NSS-12 1 36032U 09058A 26237.12886797 .00000068 00000+0 00000+0 0 9996 2 36032 0.0540 283.3401 0004076 191.4221 322.0289 1.00273237 61607 SES-1 1 36516U 10016A 26237.26711253 -.00000117 00000+0 00000+0 0 9994 2 36516 0.0563 286.7293 0002530 227.5321 174.4356 1.00272064 59721 ASTRA 3B 1 36581U 10021A 26237.19352159 .00000134 00000+0 00000+0 0 9998 2 36581 1.6417 82.6346 0003904 47.3172 296.6688 1.00269920 59551 SES-3 1 37748U 11035A 26237.26711253 -.00000105 00000+0 00000+0 0 9991 2 37748 1.4985 82.2513 0002494 82.8852 161.5646 1.00272225 55281 ASTRA 1N 1 37775U 11041A 26237.19265492 .00000117 00000+0 00000+0 0 9991 2 37775 0.0687 17.0070 0005359 116.4726 288.5162 1.00271769 45213 SES-2 1 37809U 11049A 26237.26155740 -.00000199 00000+0 00000+0 0 9990 2 37809 0.2284 88.7678 0002957 62.0010 189.9265 1.00271851 54656 QUETZSAT 1 1 37826U 11054A 26237.31760801 .00000000 00000+0 00000+0 0 9991 2 37826 0.0152 110.6649 0002836 47.9932 212.2717 1.00268076 50564 SES-4 1 38087U 12007A 26237.29369860 -.00000171 00000+0 00000+0 0 9997 2 38087 0.0231 39.2802 0002360 115.7246 262.2815 1.00269253 52916 SES-5 1 38652U 12036A 26237.18979491 .00000031 00000+0 00000+0 0 9996 2 38652 0.0533 312.2886 0002041 196.6038 257.8779 1.00273470 45140 ASTRA 2F 1 38778U 12051A 26237.19438826 .00000147 00000+0 00000+0 0 9993 2 38778 0.0881 261.9700 0003656 288.7568 240.8928 1.00271492 41825 SES-6 1 39172U 13026A 26237.18086819 -.00000264 00000+0 00000+0 0 9996 2 39172 0.0594 290.7925 0002389 205.3365 221.9366 1.00273215 48419 O3B FM5 1 39188U 13031A 26235.80286330 -.00000025 00000+0 00000+0 0 9991 2 39188 0.0881 323.5483 0002600 173.7510 222.7199 5.00115739240412 O3B FM4 1 39189U 13031B 26237.12164353 -.00000023 00000+0 00000+0 0 9997 2 39189 0.0403 351.3949 0004617 138.0056 230.6396 5.00115788240497 O3B FM2 1 39190U 13031C 26236.78730006 -.00000024 00000+0 00000+0 0 9995 2 39190 0.0342 352.7689 0002646 156.4549 210.7908 5.00116194240544 O3B PFM 1 39191U 13031D 26236.00186255 -.00000025 00000+0 00000+0 0 9993 2 39191 0.0641 340.0333 0005081 151.7301 228.2791 5.00116144240058 ASTRA 2E 1 39285U 13056A 26237.19447493 .00000148 00000+0 00000+0 0 9994 2 39285 0.1045 298.0569 0002744 229.9414 263.9954 1.00275489 47113 SES-8 1 39460U 13071A 26237.18636387 -.00000272 00000+0 00000+0 0 9996 2 39460 0.0659 273.2790 0002484 220.7946 1.4772 1.00271826 45122 ASTRA 5B 1 39617U 14011B 26237.19352159 .00000134 00000+0 00000+0 0 9994 2 39617 0.0833 297.8195 0003331 238.8303 249.9741 1.00274187 45353 O3B FM3 1 40079U 14038A 26235.86868338 -.00000025 00000+0 00000+0 0 9990 2 40079 0.0485 352.2947 0003257 206.8063 160.8858 5.00115872216423 O3B FM7 1 40080U 14038B 26237.01416390 -.00000024 00000+0 00000+0 0 9997 2 40080 0.0431 345.7136 0003156 129.9152 244.4030 5.00115732221326 O3B FM6 1 40081U 14038C 26237.04112450 -.00000024 00000+0 00000+0 0 9991 2 40081 0.0460 350.4118 0002584 162.4987 207.1022 5.00115848221273 O3B FM8 1 40082U 14038D 26236.49465947 -.00000024 00000+0 00000+0 0 9992 2 40082 0.0453 349.3637 0002748 165.5968 205.0520 5.00116244221354 O3B FM10 1 40348U 14083A 26237.12162907 -.00000023 00000+0 00000+0 0 9997 2 40348 0.0404 333.4370 0002669 178.2474 208.3294 5.00115755213348 O3B FM11 1 40349U 14083B 26236.33472459 -.00000025 00000+0 00000+0 0 9998 2 40349 0.0549 348.1069 0002316 148.1217 223.7889 5.00115635213312 O3B FM12 1 40350U 14083C 26237.16123949 -.00000023 00000+0 00000+0 0 9997 2 40350 0.0541 348.6663 0002440 163.0642 208.2820 5.00116043213369 O3B FM9 1 40351U 14083D 26236.78827811 -.00000024 00000+0 00000+0 0 9995 2 40351 0.0552 346.9237 0002630 163.7628 209.3275 5.00116159213502 ASTRA 2G 1 40364U 14089A 26237.19447493 .00000000 00000+0 00000+0 0 9998 2 40364 0.0308 352.0608 0003032 112.2961 327.3531 1.00275457 42656 SES-9 1 41380U 16013A 26236.64002591 -.00000348 00000+0 00000+0 0 9997 2 41380 0.0043 80.0483 0002168 40.2371 191.3302 1.00271513 38125 SES-10 1 42432U 17017A 26237.27892053 -.00000275 00000+0 00000+0 0 9990 2 42432 0.0129 61.5357 0002759 91.8665 213.6571 1.00269930 34444 SES-15 1 42709U 17026A 26237.27267065 .00000057 00000+0 00000+0 0 9993 2 42709 0.0440 296.1805 0000543 185.5868 180.7674 1.00267971 8123 SES-11 (ECHOSTAR 105) 1 42967U 17063A 26237.26711253 -.00000092 00000+0 00000+0 0 9992 2 42967 0.0161 354.9843 0003261 153.1813 176.5853 1.00272456 32410 SES-14 1 43175U 18012B 26237.20604243 -.00000281 00000+0 00000+0 0 9993 2 43175 0.0135 57.4643 0001130 85.5030 217.1834 1.00271731 7719 O3B FM15 1 43231U 18024A 26236.65522466 -.00000024 00000+0 00000+0 0 9998 2 43231 0.0555 356.6765 0002577 156.5428 206.7931 5.00115935154456 O3B FM16 1 43232U 18024B 26237.10731259 -.00000023 00000+0 00000+0 0 9991 2 43232 0.0574 0.4890 0002572 151.8209 207.7031 5.00116071154398 O3B FM14 1 43233U 18024C 26236.94825627 -.00000024 00000+0 00000+0 0 9997 2 43233 0.0566 1.7708 0002802 151.1470 207.0961 5.00115875154397 O3B FM13 1 43234U 18024D 26237.01415860 -.00000024 00000+0 00000+0 0 9991 2 43234 0.0582 343.7450 0004486 90.7695 285.5342 5.00115207154502 SES-12 1 43488U 18049A 26237.18983339 .00000000 00000+0 00000+0 0 9991 2 43488 0.0203 95.7111 0001481 131.6804 269.4115 1.00267915 30119 O3B FM20 1 44112U 19020A 26236.97433261 -.00000024 00000+0 00000+0 0 9993 2 44112 0.0541 353.3494 0002255 156.3162 210.3467 5.00115763135014 O3B FM19 1 44113U 19020B 26236.00185368 -.00000025 00000+0 00000+0 0 9991 2 44113 0.0760 332.0887 0003157 156.6160 231.3226 5.00116180134829 O3B FM17 1 44114U 19020C 26236.88162886 -.00000024 00000+0 00000+0 0 9997 2 44114 0.0443 13.5927 0002558 138.5561 207.8641 5.00115743134960 O3B FM18 1 44115U 19020D 26237.02788193 -.00000024 00000+0 00000+0 0 9990 2 44115 0.0544 352.9204 0002721 161.5842 205.5081 5.00115487135083 SES-17 1 49332U 21095A 26237.27892053 -.00000275 00000+0 00000+0 0 9997 2 49332 0.0231 59.0240 0001235 86.4250 221.4117 1.00269750 18541 SES-22 1 52933U 22071A 26237.20785565 .00000102 00000+0 00000+0 0 9993 2 52933 0.0274 254.6194 0001262 242.4489 132.2255 1.00272197 8212 SES-20 1 53960U 22123A 26237.26711253 -.00000104 00000+0 00000+0 0 9994 2 53960 0.0126 90.2227 0002112 11.2142 225.1534 1.00270822 14226 SES-21 1 53961U 22123B 26236.52138375 .00000067 00000+0 00000+0 0 9998 2 53961 0.0263 51.7988 0000930 104.8468 232.8431 1.00270530 7893 O3B MPOWER F1 1 54755U 22174A 26237.26705935 -.00000023 00000+0 00000+0 0 9993 2 54755 0.0453 338.8987 0006848 181.8692 129.7401 5.00114581 68819 O3B MPOWER F2 1 54756U 22174B 26235.67323507 -.00000025 00000+0 00000+0 0 9990 2 54756 0.0418 341.5030 0005616 164.8453 213.6863 5.00114749 68821 SES-18 1 55970U 23038A 26237.16847480 -.00000104 00000+0 00000+0 0 9994 2 55970 0.0542 281.8947 0001809 285.6372 83.4502 1.00272141 12798 SES-19 1 55971U 23038B 26237.20877788 .00000085 00000+0 00000+0 0 9991 2 55971 0.0458 286.6776 0001591 215.6361 131.4183 1.00273412 12787 O3B MPOWER F4 1 56367U 23059A 26236.93676404 -.00000024 00000+0 00000+0 0 9999 2 56367 0.0618 344.3226 0007742 168.0957 207.6221 5.00115203 62043 O3B MPOWER F3 1 56368U 23059B 26236.96990579 -.00000024 00000+0 00000+0 0 9995 2 56368 0.0622 343.3113 0006507 164.3349 212.3929 5.00113892 58163 O3B MPOWER F5 1 58346U 23175A 26237.07085268 -.00000023 00000+0 00000+0 0 9994 2 58346 0.0581 5.0472 0005981 165.7065 189.2565 5.00115779 52887 O3B MPOWER F6 1 58347U 23175B 26237.17134432 -.00000023 00000+0 00000+0 0 9994 2 58347 0.0570 357.0817 0004441 160.1702 202.7671 5.00115652 51794 ASTRA 1P (SES-24) 1 60086U 24115A 26235.76705620 .00000117 00000+0 00000+0 0 9991 2 60086 0.0707 316.4627 0002033 249.4547 61.4777 1.00271902 7874 O3B MPOWER F7 1 62362U 24244A 26236.83798649 -.00000024 00000+0 00000+0 0 9993 2 62362 0.0622 336.3987 0005789 171.7290 211.9066 5.00115477 29956 O3B MPOWER F8 1 62363U 24244B 26237.00486543 -.00000024 00000+0 00000+0 0 9991 2 62363 0.0245 32.7761 0005376 110.0150 217.2454 5.00114869 24317 O3B MPOWER F9 1 64866U 25153A 26236.33851658 -.00000025 00000+0 00000+0 0 9990 2 64866 0.0654 359.3196 0007129 167.4243 193.2740 5.00115573 22961 O3B MPOWER F10 1 64867U 25153B 26237.10419819 -.00000023 00000+0 00000+0 0 9994 2 64867 0.0616 357.0129 0003804 260.3753 102.5685 5.00114958 25472